Location: Unspecified
(0.0000°N, 0.0000°E)
Time: 03:52:08
(UTC+00:00)

ISS - Pass Details

Date: 23 April 2017
Orbit: 402 x 408 km, 51.6° (Epoch: 29 May)

Event Time Altitude Azimuth Distance (km) Brightness Sun altitude
Rises 18:46:04 0° 313° (NW) 2,309 1.1 -11.7°
Reaches altitude 10° 18:48:13 10° 305° (NW) 1,455 0.2 -12.2°
Maximum altitude 18:51:17 38° 235° (SW) 632 -2.5 -12.9°
Drops below altitude 10° 18:54:23 10° 164° (SSE) 1,466 -1.3 -13.7°
Enters shadow 18:54:37 - 163° (SSE) 1,560 -1.2 -13.7°
